Station MEEM4 - Manistee Harbor, MI Image indicating link to RSS feed of recent meteorological observations for station MEEM4


Conditions at MEEM4 as of
(6:40 pm EDT)
2240 GMT on 05/30/2023:
     

Click on the graph icon in the table below to see a time series plot of the last five days of that observation.

5-day plot - Wind Direction Wind Direction (WDIR):WNW ( 300 deg true )
5-day plot - Wind Speed Wind Speed (WSPD): 1.9 kts
5-day plot - Wind Gust Wind Gust (GST): 1.9 kts
5-day plot - Atmospheric Pressure Atmospheric Pressure (PRES):29.99 in
5-day plot - Air Temperature Air Temperature (ATMP): 70.0 °F
5-day plot - Wind Speed at 10 Meters Wind Speed at 10 meters (WSPD10M): 1.9 kts
5-day plot - Wind Speed at 20 Meters Wind Speed at 20 meters (WSPD20M): 1.9 kts
5-day plot -  Wind Speed, Wind Gust and Atmospheric Pressure Combined plot of Wind Speed, Gust, and Air Pressure
Previous observations
TIME
(EDT)
5-day plot - Wind Direction
WDIR
 
5-day plot - Wind Speed
WSPD
kts
5-day plot - Wind Gust
GST
kts
5-day plot - Wave Height
WVHT
ft
5-day plot - Dominant Wave Period
DPD
sec
5-day plot - Average Wave Period
APD
sec
5-day plot - Mean Wave Direction
MWD
 
5-day plot - Atmospheric Pressure
PRES
in
5-day plot - Pressure Tendency
PTDY
in
5-day plot - Air Temperature
ATMP
°F
5-day plot - Water Temperature
WTMP
°F
5-day plot - Dew Point
DEWP
°F
5-day plot - Salinity
SAL
psu
5-day plot - Visibility
VIS
nmi
5-day plot - Tide (above MLLW)
TIDE
ft
2023-05-30 06:30 pm NW 1.9 1.9----29.98- 71.2-----
2023-05-30 06:20 pmWNW 1.9 1.9----29.99- 71.4-----
2023-05-30 06:10 pm NW 1.9 2.9----30.00- 70.9-----
2023-05-30 06:00 pm N 1.0 1.9----30.01-0.01 70.2-----
2023-05-30 05:50 pm W 1.0 1.9----30.01- 71.1-----
2023-05-30 05:40 pmNNW 1.0 1.9----30.00- 70.7-----
2023-05-30 05:30 pm- 0.0 1.9----29.99- 71.4-----
2023-05-30 05:20 pm NW 1.9 2.9----30.01- 70.3-----
2023-05-30 05:10 pm NW 1.9 2.9----30.01- 70.5-----
2023-05-30 05:00 pm W 1.9 2.9----30.01-0.01 69.6-----
2023-05-30 04:50 pmWSW 2.9 4.1----30.00- 69.8-----
2023-05-30 04:40 pmWNW 1.9 1.9----30.01- 70.5-----
2023-05-30 04:30 pmWNW 1.9 1.9----30.02- 70.0-----
2023-05-30 04:20 pmNNW 1.0 1.9----30.00- 71.2-----
2023-05-30 04:10 pmWNW 1.9 2.9----30.03- 70.3-----
2023-05-30 04:00 pmNNW 1.9 4.1----30.01-0.05 68.5-----
2023-05-30 03:50 pm N 2.9 4.1----30.03- 69.4-----
2023-05-30 03:40 pmNNW 2.9 4.1----30.01- 69.1-----
2023-05-30 03:30 pm N 2.9 2.9----30.02- 68.5-----
2023-05-30 03:20 pmNNW 2.9 5.1----30.03- 68.0-----
2023-05-30 03:10 pm W 2.9 4.1----30.02- 68.7-----
2023-05-30 03:00 pmWNW 2.9 4.1----30.02-0.03 68.4-----
2023-05-30 02:50 pmWSW 5.1 7.0----30.03- 67.1-----
2023-05-30 02:40 pm SW 7.0 9.9----30.04- 66.0-----
2023-05-30 02:30 pm SW 8.0 9.9----30.01- 66.9-----
2023-05-30 02:20 pm SW 8.9 11.1----30.04- 68.2-----
2023-05-30 02:10 pm SW 7.0 9.9----30.04- 67.5-----
2023-05-30 02:00 pm SW 8.0 9.9----30.02-0.05 68.0-----
2023-05-30 01:50 pm SW 8.9 11.1----30.05- 67.1-----
2023-05-30 01:40 pm SW 7.0 9.9----30.03- 67.1-----
2023-05-30 01:30 pm SW 7.0 9.9----30.06- 67.8-----
2023-05-30 01:20 pm SW 7.0 8.9----30.04- 67.8-----
2023-05-30 01:10 pm SW 7.0 8.0----30.05- 67.5-----
2023-05-30 01:00 pm SW 6.0 8.9----30.06-0.01 68.0-----
2023-05-30 12:50 pmWSW 5.1 5.1----30.05- 70.7-----
2023-05-30 12:40 pm NW 1.0 4.1----30.04- 69.8-----
2023-05-30 12:30 pmNNW 1.9 2.9----30.06- 68.7-----
2023-05-30 12:20 pmWNW 1.0 1.9----30.07- 70.2-----
2023-05-30 12:10 pm W 1.9 2.9----30.06- 69.3-----
2023-05-30 12:00 pm- 0.0 1.9----30.05-0.02 71.4-----
2023-05-30 11:50 am W 1.9 1.9----30.05- 70.5-----
2023-05-30 11:40 am- 0.0 1.9----30.06- 68.2-----
2023-05-30 11:30 am- 0.0 1.9----30.06- 68.5-----
2023-05-30 11:20 am- 0.0 1.9----30.05- 68.4-----
2023-05-30 11:10 am NW 1.0 1.9----30.05- 69.3-----
2023-05-30 11:00 amWNW 1.0 2.9----30.07+0.03 66.9-----
2023-05-30 10:50 am NW 1.0 2.9----30.05- 68.0-----
2023-05-30 10:40 amWNW 1.0 4.1----30.07- 65.7-----
2023-05-30 10:30 am W 1.9 4.1----30.05- 64.2-----
2023-05-30 10:20 am W 4.1 5.1----30.07- 64.0-----
2023-05-30 10:10 am W 1.0 2.9----30.04- 64.4-----
2023-05-30 10:00 amSSW 1.0 1.9----30.07+0.04 67.1-----
2023-05-30 09:50 amWNW 1.9 2.9----30.07- 63.5-----
2023-05-30 09:40 am NW 1.9 5.1----30.05- 63.5-----
2023-05-30 09:30 am SW 4.1 5.1----30.04- 63.0-----
2023-05-30 09:20 am S 1.0 6.0----30.05-------
2023-05-30 09:10 am SW 6.0 8.0----30.06-------
2023-05-30 09:00 am SW 6.0 7.0----30.07+0.06------
2023-05-30 08:50 amSSE 1.9 5.1----30.07- 70.5-----
2023-05-30 08:40 amESE 5.1 8.0----30.06- 68.9-----
2023-05-30 08:30 amESE 5.1 11.1----30.06- 67.3-----
2023-05-30 08:20 amESE 5.1 11.1----30.06- 66.6-----
2023-05-30 08:10 amESE 5.1 7.0----30.05- 65.5-----
2023-05-30 08:00 amESE 5.1 7.0----30.04+0.05 64.6-----
2023-05-30 07:50 amESE 5.1 6.0----30.02- 63.7-----
2023-05-30 07:40 amESE 5.1 7.0----30.03- 63.0-----
2023-05-30 07:30 amESE 4.1 7.0----30.04- 61.9-----
2023-05-30 07:20 am E 4.1 8.0----30.03- 60.8-----
2023-05-30 07:10 amESE 4.1 8.0----30.02- 59.9-----
2023-05-30 07:00 amESE 6.0 8.0----30.03+0.03 58.3-----
2023-05-30 06:50 am E 4.1 6.0----30.01- 57.9-----
2023-05-30 06:40 am E 1.9 4.1----30.02- 57.7-----
2023-05-30 06:30 am E 1.9 6.0----30.03- 57.0-----
2023-05-30 06:20 am E 2.9 6.0----30.00- 56.8-----
2023-05-30 06:10 am E 2.9 5.1----30.02- 56.7-----
2023-05-30 06:00 am E 1.9 4.1----30.01+0.01 56.8-----
2023-05-30 05:50 amENE 1.0 5.1----30.01- 56.8-----
2023-05-30 05:40 am E 1.9 7.0----30.02- 57.0-----
2023-05-30 05:30 am E 2.9 7.0----29.99- 56.8-----
2023-05-30 05:20 am E 5.1 7.0----30.01- 56.8-----
2023-05-30 05:10 am E 4.1 7.0----30.01- 56.7-----
2023-05-30 05:00 am E 4.1 5.1----29.99-0.04 56.7-----
2023-05-30 04:50 am E 2.9 6.0----30.02- 56.7-----
2023-05-30 04:40 am E 4.1 7.0----30.01- 56.8-----
2023-05-30 04:30 am E 4.1 7.0----30.00- 57.4-----
2023-05-30 04:20 am E 5.1 8.0----30.02- 57.7-----
2023-05-30 04:10 am E 5.1 7.0----30.01- 57.6-----
2023-05-30 04:00 am E 5.1 7.0----30.00-0.02 57.2-----
2023-05-30 03:50 am E 5.1 7.0----30.02- 57.4-----
2023-05-30 03:40 am E 5.1 8.0----30.01- 57.7-----
2023-05-30 03:30 am E 5.1 8.0----30.00- 58.1-----
2023-05-30 03:20 am E 5.1 7.0----30.02- 58.3-----
2023-05-30 03:10 am E 5.1 7.0----30.02- 58.5-----
2023-05-30 03:00 am E 4.1 7.0----30.00-0.02 59.0-----
2023-05-30 02:50 am E 4.1 7.0----30.02- 58.8-----
2023-05-30 02:40 am E 4.1 6.0----30.03- 59.0-----
2023-05-30 02:30 am E 4.1 7.0----30.02- 59.0-----
2023-05-30 02:20 am E 5.1 7.0----30.01- 59.0-----
2023-05-30 02:10 am E 5.1 7.0----30.03- 59.7-----
2023-05-30 02:00 am E 5.1 7.0----30.03-0.01 60.4-----
2023-05-30 01:50 am E 5.1 7.0----30.02- 61.0-----
2023-05-30 01:40 am E 6.0 9.9----30.01- 61.0-----
2023-05-30 01:30 am E 6.0 8.0----30.02- 61.0-----
2023-05-30 01:20 am E 5.1 7.0----30.03- 61.2-----
2023-05-30 01:10 am E 6.0 8.0----30.03- 61.0-----
2023-05-30 01:00 am E 5.1 6.0----30.02-0.01 60.8-----
2023-05-30 12:50 am E 4.1 6.0----30.01- 61.3-----
2023-05-30 12:40 am E 4.1 6.0----30.02- 61.5-----
2023-05-30 12:30 am E 4.1 5.1----30.03- 61.7-----
2023-05-30 12:20 am E 2.9 5.1----30.04- 61.7-----
2023-05-30 12:10 am E 4.1 5.1----30.03- 61.5-----
2023-05-30 12:00 am E 2.9 5.1----30.02+0.02 61.3-----
2023-05-29 11:50 pm E 1.9 4.1----30.01- 61.7-----
2023-05-29 11:40 pm- 0.0 1.9----30.02- 61.9-----
2023-05-29 11:30 pm E 1.0 4.1----30.03- 62.4-----
2023-05-29 11:20 pm E 2.9 5.1----30.03- 62.4-----
2023-05-29 11:10 pm E 2.9 5.1----30.04- 63.0-----
2023-05-29 11:00 pm E 4.1 5.1----30.04+0.03 63.7-----
2023-05-29 10:50 pm E 4.1 4.1----30.04- 63.3-----
2023-05-29 10:40 pm E 4.1 4.1----30.04- 63.5-----
2023-05-29 10:30 pm E 1.0 1.9----30.04- 63.5-----
2023-05-29 10:20 pm- 0.0 1.9----30.04- 63.7-----
2023-05-29 10:10 pm E 1.9 1.9----30.04- 64.2-----
2023-05-29 10:00 pm- 0.0 1.0----30.03+0.01 63.9-----
2023-05-29 09:50 pm S 1.0 1.0----30.02- 64.0-----
2023-05-29 09:40 pm- 0.0 1.0----30.01- 64.8-----
2023-05-29 09:30 pm SE 1.0 1.0----30.00- 64.4-----
2023-05-29 09:20 pm- 0.0 1.0----30.01- 63.0-----
2023-05-29 09:10 pm- 0.0 0.0----30.03- 62.8-----
2023-05-29 09:00 pm- 0.0 1.9----30.00-0.02 63.7-----
2023-05-29 08:50 pm- 0.0 1.9----30.02- 64.6-----
2023-05-29 08:40 pm NE 1.9 4.1----30.01- 64.8-----
2023-05-29 08:30 pm NE 2.9 2.9----30.02- 66.0-----
2023-05-29 08:20 pm NE 2.9 5.1----30.00- 66.7-----
2023-05-29 08:10 pm NE 5.1 6.0----30.02- 66.7-----
2023-05-29 08:00 pm NE 1.9 4.1----30.01-0.03 66.7-----
2023-05-29 07:50 pm NE 1.0 2.9----30.00- 66.6-----
2023-05-29 07:40 pm- 0.0 1.9----30.02- 67.6-----
2023-05-29 07:30 pm- 0.0 1.9----30.02- 67.6-----
2023-05-29 07:20 pm- 0.0 1.9----30.00- 66.6-----
2023-05-29 07:10 pmWSW 1.9 1.9----30.02- 65.5-----
2023-05-29 07:00 pmWNW 1.9 1.9----30.02-0.01 67.8-----
2023-05-29 06:50 pm- 0.0 1.9----30.01- 65.3-----